Weather History for De Queen, AR

Change the Weather History Date:

Sunday, May 26, 2013

  Actual Average Record
Temperature  
Mean Temperature 75 °F 72 °F  
Max Temperature 84 °F 83 °F 92 °F (1996)
Min Temperature 66 °F 62 °F 45 °F (1988)
Degree Days  
Heating Degree Days 0 0  
Month to date heating degree days 69 21  
Since 1 July heating degree days 3050 3042  
Cooling Degree Days 10 8  
Month to date cooling degree days 104 129  
Year to date cooling degree days 164 176  
Growing Degree Days 25 (Base 50)    
Moisture  
Dew Point 66 °F    
Average Humidity 74    
Maximum Humidity 93    
Minimum Humidity 55    
Precipitation  
Precipitation 0.25 in 0.12 in 4.20 in (1968)
Month to date precipitation 3.75 4.88  
Year to date precipitation 11.03 20.45  
Snow  
Snow 0.00 in - - ()
Month to date snowfall 0.0  
Since 1 July snowfall 4.5  
Snow Depth 0.00 in    
Sea Level Pressure  
Sea Level Pressure 30.06 in    
Wind  
Wind Speed 4 mph (SSE)    
Max Wind Speed 26 mph    
Max Gust Speed 35 mph    
Visibility 8 miles    
Events Rain    
T = Trace of Precipitation, MM = Missing Value Source: NWS Daily Summary

Daily Weather History Graph

Daily Weather History Graph

Search for Another Location

Airport:

Trip Planner

Search our weather history database for the weather conditions in past years. The results will help you decide how hot, cold, wet, or windy it might be!

Date:

Astronomy

May. 26, 2013 Rise Set
Actual Time 6:09 AM CDT 8:20 PM CDT
Civil Twilight 5:41 AM CDT 8:48 PM CDT
Nautical Twilight 5:06 AM CDT 9:23 PM CDT
Astronomical Twilight 4:28 AM CDT 10:01 PM CDT
Moon 10:09 PM CDT (5/26) 7:38 AM CDT (5/26)
Length of Visible Light 15h 07m
Length of Day
14h 10m
Waning Gibbous, 96% of the Moon is Illuminated
May 26
Waning Gibbous
May 31
Last Quarter
Jun 8
New
Jun 16
First Quarter
Jun 23
Full

Hourly Weather History & Observations

Time (CDT) Temp. Heat Index Dew Point Humidity Pressure Visibility Wind Dir Wind Speed Gust Speed Precip Events Conditions
12:53 AM 66.9 °F - 64.9 °F 93% 30.09 in 10.0 mi West 3.5 mph - N/A   Clear
1:53 AM 68.0 °F - 64.9 °F 90% 30.08 in 10.0 mi East 3.5 mph - N/A   Clear
2:53 AM 66.9 °F - 64.9 °F 93% 30.09 in 9.0 mi Calm Calm - N/A   Clear
3:53 AM 66.9 °F - 64.9 °F 93% 30.09 in 8.0 mi Calm Calm - N/A   Clear
4:53 AM 68.0 °F - 64.9 °F 90% 30.09 in 9.0 mi East 3.5 mph - N/A   Overcast
5:45 AM 68.0 °F - 64.9 °F 90% 30.10 in 9.0 mi Calm Calm - N/A   Scattered Clouds
5:53 AM 68.0 °F - 64.9 °F 90% 30.09 in 9.0 mi Calm Calm - N/A   Partly Cloudy
6:53 AM 68.0 °F - 64.9 °F 90% 30.09 in 6.0 mi ENE 3.5 mph - N/A   Clear
7:53 AM 70.0 °F - 66.0 °F 87% 30.09 in 6.0 mi Calm Calm - N/A   Clear
8:53 AM 73.0 °F - 68.0 °F 84% 30.10 in 6.0 mi Calm Calm - N/A   Haze
9:53 AM 75.9 °F - 70.0 °F 82% 30.11 in 6.0 mi SSW 8.1 mph - N/A   Haze
10:53 AM 78.1 °F - 70.0 °F 76% 30.10 in 7.0 mi SW 8.1 mph - N/A   Clear
11:53 AM 82.0 °F 84.5 °F 66.9 °F 60% 30.10 in 9.0 mi SW 10.4 mph 16.1 mph N/A   Partly Cloudy
12:53 PM 82.0 °F 84.1 °F 66.0 °F 58% 30.09 in 9.0 mi SW 10.4 mph - N/A   Scattered Clouds
1:53 PM 84.0 °F 86.5 °F 66.9 °F 56% 30.08 in 9.0 mi SSW 9.2 mph - N/A   Scattered Clouds
2:53 PM 84.0 °F 86.3 °F 66.0 °F 55% 30.06 in 10.0 mi Variable 6.9 mph 17.3 mph N/A   Partly Cloudy
3:15 PM 73.9 °F - 66.9 °F 79% 30.08 in 0.8 mi SW 16.1 mph 35.7 mph 0.22 in Rain Heavy Rain
3:25 PM 73.0 °F - 68.0 °F 84% 30.07 in 2.5 mi SSW 9.2 mph 25.3 mph 0.25 in Rain Light Rain
3:32 PM 73.9 °F - 69.1 °F 85% 30.07 in 10.0 mi SSW 8.1 mph - 0.25 in   Overcast
3:53 PM 75.9 °F - 66.0 °F 71% 30.05 in 10.0 mi SSW 9.2 mph 19.6 mph 0.25 in   Scattered Clouds
4:53 PM 77.0 °F - 64.9 °F 66% 30.04 in 10.0 mi Calm Calm - N/A   Mostly Cloudy
5:53 PM 78.1 °F - 63.0 °F 60% 30.01 in 10.0 mi Calm Calm - N/A   Mostly Cloudy
6:53 PM 78.1 °F - 64.0 °F 62% 30.00 in 10.0 mi SSE 5.8 mph - N/A   Overcast
7:53 PM 75.9 °F - 64.9 °F 69% 30.00 in 10.0 mi ESE 5.8 mph - N/A   Overcast
8:53 PM 73.9 °F - 66.0 °F 76% 30.00 in 10.0 mi ESE 5.8 mph - N/A   Overcast
9:53 PM 73.0 °F - 66.0 °F 79% 30.01 in 10.0 mi East 4.6 mph - N/A   Mostly Cloudy
10:53 PM 72.0 °F - 66.9 °F 84% 30.02 in 9.0 mi East 4.6 mph - N/A   Mostly Cloudy
11:53 PM 72.0 °F - 68.0 °F 87% 30.01 in 8.0 mi ENE 3.5 mph - N/A   Overcast